STARLINK-1579, 46083

Orbit data source: Space-Track

STARLINK-1579, 46083 is a payload satellite owned by SpaceX/Seattle (US) in LEO that was launched on Fri, 07 Aug 2020 UTC via an FALCON 9 launch vehicle from the Air Force Eastern Test Range (AFETR). Payload-class satellites include a variety of spacecraft equipped with specific instruments for various scientific and technological missions. These include communications satellites like Starlink; space stations such as the ISS; scientific satellites like the Hubble; Earth observation satellites from companies like Planet Labs, Umbra, and HawkEye 360; GPS; miniature CubeSats for education and research; and military/defense satellites.

Loading next visibility...
Identifier
46083, 2020-055BJ
Orbit
LEO
Country
Flag of USUS
Related business
Manufacturer
SpaceX/Seattle
Mission
Operational Commercial Communications
Bus & Motor
STARLINK, Unknown motor
Mass
260 kg wet, ~248 kg dry
Launch date (UTC)
2020-08-07 (6 years ago)
Launch vehicle
FALCON 9
Launch site
Air Force Eastern Test Range (AFETR)
Object type
Payload
Rocket body
Debris
Shape & HBR
Box + 1 Pan, 10.1 m
Radar Cross Section
13.562 m², Large (>1 m²)

Expand to show TLE details & history
Last TLE update: 3 days ago

TLE from 3 days ago
0 STARLINK-1579
1 46083U 20055BJ  26170.86351017  .00002024  00000-0  76946-4 0  9994
2 46083  53.1610 345.8634 0001387  78.9796 281.1361 15.31706082324887
Epoch: 2026-06-19T20:43Z
TLE epoch observation values (Epoch: 2026-06-19T20:43:27.278Z)
Latitude
-0.00006°
Longitude
126.91331°
Altitude
471.439 km
Speed
7.632 km/s
True Right ascension
23h 03m 27s
True Declination
0° 00' 00"
Sunlit
Object was in daylight at epoch
Visualization orbit readout
Latitude
Unknown
Longitude
Unknown
Altitude
Unknown
Speed
Unknown
Apparent Right ascension
Unknown
Apparent Declination
Unknown
Sunlit
N/A
Visualization observer readout
Local Sidereal Time
21:36:00
Azimuth
Unknown
Elevation
Unknown
Doppler factor
Unknown
Orbital elements
Apogee altitude
471.928 km
Perigee altitude
470.028 km
Semi-major axis
6,849.115 km
Eccentricity
0.00014
Inclination
53.161°
RAAN
345.8634°
Arg. of periapsis
78.9796°
True anomaly
281.1205°
Mean anomaly
281.1361°
Eccentric anomaly
281.1283°
Mean motion
3.82905 °/min
Orbital period
94.02 mins
BSTAR
0.000076946
Loading maneuver chart data...
Computing Atmospheric mass density...

Documentation

Showing up to 5 results
|